sat.trackr.live / text

‹ back to catalog

REPLICATOR 2

NORAD 69927 · 2026-156BL

PAYLOAD ACTIVE UNKNOWN

§ Identity

Operator
Country
GER
Launch date
2026-07-07
Launch site
AFWTR
Launch vehicle
Mass (kg)
RCS (m²)

External: N2YO · Heavens-Above · Gunter

§ Orbital elements

Epoch: 2026-09-20T04:11:37.449600Z

Period
96.50 min
Inclination
97.7452°
Eccentricity
0.0006790
Mean motion
14.92304908 rev/d
Perigee alt
586.0 km
Apogee alt
595.5 km
Semi-major
6,968.9 km
B*
4.8783e-5
RAAN
162.4294°
Arg perigee
272.7587°
Mean anomaly
87.2855°
Rev number
1,099

§ Raw data

REPLICATOR 21 69927U 26156BL  26263.17473900  .00000442  00000+0  48783-4 0  99962 69927  97.7452 162.4294 0006790 272.7587  87.2855 14.92304908 10991

JSON: /api/v1/satellites/69927 · /tle

For live sub-satellite position, see the globe view (requires WebGL).

§ Visibility from observer

Set your observer location to see the next 7 days of passes ≥ 10°. The values pass through the URL so the page stays shareable.

No JS? Fill the form by hand. The geolocation button needs JavaScript.